Weather History for KGAI - February, 2013

Change the Weather History Date:

Sunday, February 17, 2013

  Actual Average (KCGS) Record (KCGS)
Temperature  
Mean Temperature 24 °F -  
Max Temperature 28 °F 45 °F 74 °F (1976)
Min Temperature 21 °F 27 °F 3 °F (1958)
Degree Days  
Heating Degree Days 40    
Moisture  
Dew Point 9 °F    
Average Humidity 51    
Maximum Humidity 64    
Minimum Humidity 37    
Precipitation  
Precipitation 0.00 in - - ()
Sea Level Pressure  
Sea Level Pressure 29.98 in    
Wind  
Wind Speed 13 mph (NW)    
Max Wind Speed 25 mph    
Max Gust Speed 36 mph    
Visibility 10 miles    
Events      
Averages and records for this station are not official NWS values.
T = Trace of Precipitation, MM = Missing Value Source: NWS Daily Summary

Daily Weather History Graph

Daily Weather History Graph

Search for Another Location

Airport or City:

Trip Planner

Search our weather history database for the weather conditions in past years. The results will help you decide how hot, cold, wet, or windy it might be!

Date:

Astronomy

Feb. 17, 2013 Rise Set
Actual Time 6:57 AM EST 5:48 PM EST
Civil Twilight 6:30 AM EST 6:15 PM EST
Nautical Twilight 5:58 AM EST 6:46 PM EST
Astronomical Twilight 5:27 AM EST 7:17 PM EST
Moon 10:52 AM EST (2/17) 12:38 AM EST (2/17)
Length of Visible Light 11h 45m
Length of Day
10h 50m
Waxing Crescent, 49% of the Moon is Illuminated
Feb 17
Waxing Crescent
Feb 17
First Quarter
Feb 25
Full
Mar 4
Last Quarter
Mar 11
New

Hourly Weather History & Observations

Time (EST) Temp. Windchill Dew Point Humidity Pressure Visibility Wind Dir Wind Speed Gust Speed Precip Events Conditions
12:15 AM 28.4 °F 18.0 °F 15.8 °F 59% 29.85 in 10.0 mi NNW 12.7 mph 20.7 mph N/A   Clear
12:35 AM 26.6 °F 16.8 °F 15.8 °F 64% 29.85 in 10.0 mi NNW 10.4 mph 17.3 mph N/A   Clear
12:55 AM 26.6 °F 16.2 °F 15.8 °F 64% 29.85 in 10.0 mi NNW 11.5 mph 19.6 mph N/A   Clear
1:15 AM 26.6 °F 17.5 °F 14.0 °F 59% 29.85 in 10.0 mi NNW 9.2 mph 16.1 mph N/A   Clear
1:35 AM 26.6 °F 16.8 °F 14.0 °F 59% 29.85 in 10.0 mi NNW 10.4 mph 16.1 mph N/A   Clear
1:55 AM 26.6 °F 18.2 °F 14.0 °F 59% 29.85 in 10.0 mi NW 8.1 mph - N/A   Clear
2:15 AM 26.6 °F 15.7 °F 14.0 °F 59% 29.85 in 10.0 mi NW 12.7 mph 17.3 mph N/A   Clear
2:35 AM 26.6 °F 16.2 °F 14.0 °F 59% 29.85 in 10.0 mi NNW 11.5 mph 19.6 mph N/A   Clear
2:55 AM 26.6 °F 16.8 °F 14.0 °F 59% 29.85 in 10.0 mi NNW 10.4 mph 16.1 mph N/A   Clear
3:15 AM 24.8 °F 14.0 °F 12.2 °F 59% 29.85 in 10.0 mi NW 11.5 mph - N/A   Clear
3:35 AM 24.8 °F 15.3 °F 12.2 °F 59% 29.85 in 10.0 mi NW 9.2 mph - N/A   Clear
3:55 AM 24.8 °F 16.9 °F 12.2 °F 59% 29.85 in 10.0 mi NNW 6.9 mph - N/A   Clear
4:15 AM 24.8 °F 16.9 °F 12.2 °F 59% 29.86 in 10.0 mi NNW 6.9 mph - N/A   Clear
4:35 AM 24.8 °F 15.3 °F 12.2 °F 59% 29.86 in 10.0 mi NNW 9.2 mph - N/A   Clear
4:55 AM 24.8 °F 15.3 °F 12.2 °F 59% 29.87 in 10.0 mi NW 9.2 mph 16.1 mph N/A   Clear
5:15 AM 24.8 °F 14.0 °F 12.2 °F 59% 29.87 in 10.0 mi NW 11.5 mph - N/A   Clear
5:35 AM 23.0 °F 11.7 °F 12.2 °F 63% 29.87 in 10.0 mi NW 11.5 mph 18.4 mph N/A   Clear
5:55 AM 23.0 °F 11.1 °F 10.4 °F 59% 29.88 in 10.0 mi NW 12.7 mph 17.3 mph N/A   Clear
6:15 AM 23.0 °F 12.4 °F 10.4 °F 59% 29.88 in 10.0 mi NW 10.4 mph - N/A   Clear
6:35 AM 21.2 °F 10.9 °F 10.4 °F 63% 29.88 in 10.0 mi WNW 9.2 mph - N/A   Clear
6:55 AM 23.0 °F 11.7 °F 10.4 °F 59% 29.89 in 10.0 mi NW 11.5 mph 17.3 mph N/A   Clear
7:15 AM 21.2 °F 8.9 °F 10.4 °F 63% 29.90 in 10.0 mi NW 12.7 mph 17.3 mph N/A   Clear
7:35 AM 23.0 °F 10.6 °F 10.4 °F 59% 29.90 in 10.0 mi NW 13.8 mph 19.6 mph N/A   Clear
7:55 AM 24.8 °F 14.0 °F 10.4 °F 54% 29.90 in 10.0 mi NW 11.5 mph 19.6 mph N/A   Clear
8:15 AM 24.8 °F 12.9 °F 10.4 °F 54% 29.91 in 10.0 mi NNW 13.8 mph 23.0 mph N/A   Clear
8:35 AM 26.6 °F 14.3 °F 10.4 °F 51% 29.92 in 10.0 mi NW 16.1 mph 21.9 mph N/A   Clear
9:15 AM 26.6 °F 14.7 °F 10.4 °F 51% 29.93 in 10.0 mi NW 15.0 mph 26.5 mph N/A   Clear
9:35 AM 26.6 °F 13.4 °F 10.4 °F 51% 29.93 in 10.0 mi NW 18.4 mph 23.0 mph N/A   Clear
9:55 AM 26.6 °F 16.2 °F 10.4 °F 51% 29.94 in 10.0 mi NNW 11.5 mph 26.5 mph N/A   Clear
10:15 AM 28.4 °F 15.1 °F 10.4 °F 47% 29.94 in 10.0 mi NW 20.7 mph 31.1 mph N/A   Clear
10:35 AM 28.4 °F 15.1 °F 10.4 °F 47% 29.95 in 10.0 mi NW 20.7 mph 28.8 mph N/A   Partly Cloudy
10:55 AM 28.4 °F 16.2 °F 10.4 °F 47% 29.95 in 10.0 mi NNW 17.3 mph 34.5 mph N/A   Partly Cloudy
11:15 AM 28.4 °F 14.7 °F 10.4 °F 47% 29.96 in 10.0 mi NW 21.9 mph 31.1 mph N/A   Scattered Clouds
11:35 AM 28.4 °F 15.8 °F 8.6 °F 43% 29.96 in 10.0 mi NW 18.4 mph 31.1 mph N/A   Scattered Clouds
11:55 AM 28.4 °F 16.2 °F 8.6 °F 43% 29.97 in 10.0 mi NW 17.3 mph 25.3 mph N/A   Scattered Clouds
12:15 PM 28.4 °F 18.5 °F 10.4 °F 47% 29.97 in 10.0 mi NNW 11.5 mph 24.2 mph N/A   Mostly Cloudy
12:35 PM 26.6 °F 14.3 °F 8.6 °F 47% 29.96 in 10.0 mi NW 16.1 mph 26.5 mph N/A   Mostly Cloudy
12:55 PM 26.6 °F 15.7 °F 10.4 °F 51% 29.96 in 10.0 mi NNW 12.7 mph 23.0 mph N/A   Mostly Cloudy
1:15 PM 26.6 °F 13.4 °F 8.6 °F 47% 29.96 in 8.0 mi NW 18.4 mph 26.5 mph N/A   Mostly Cloudy
1:35 PM 28.4 °F 15.1 °F 6.8 °F 40% 29.96 in 10.0 mi WNW 20.7 mph 29.9 mph N/A   Mostly Cloudy
1:55 PM 28.4 °F 15.8 °F 8.6 °F 43% 29.97 in 10.0 mi NW 18.4 mph 27.6 mph N/A   Mostly Cloudy
2:15 PM 28.4 °F 14.4 °F 6.8 °F 40% 29.97 in 10.0 mi NW 23.0 mph 31.1 mph N/A   Overcast
2:35 PM 28.4 °F 13.8 °F 8.6 °F 43% 29.97 in 10.0 mi NW 25.3 mph 33.4 mph N/A   Mostly Cloudy
2:55 PM 28.4 °F 15.8 °F 5.0 °F 37% 29.97 in 10.0 mi WNW 18.4 mph 28.8 mph N/A   Mostly Cloudy
3:15 PM 26.6 °F 12.7 °F 6.8 °F 43% 29.98 in 10.0 mi NW 20.7 mph 35.7 mph N/A   Mostly Cloudy
3:35 PM 26.6 °F 13.1 °F 5.0 °F 40% 29.99 in 10.0 mi WNW 19.6 mph 27.6 mph N/A   Mostly Cloudy
3:55 PM 26.6 °F 13.4 °F 6.8 °F 43% 30.00 in 10.0 mi NW 18.4 mph 27.6 mph N/A   Mostly Cloudy
4:15 PM 26.6 °F 13.1 °F 6.8 °F 43% 30.00 in 10.0 mi NW 19.6 mph 28.8 mph N/A   Mostly Cloudy
4:35 PM 26.6 °F 17.5 °F 8.6 °F 47% 30.01 in 10.0 mi NNW 9.2 mph 24.2 mph N/A   Mostly Cloudy
4:55 PM 26.6 °F 15.2 °F 8.6 °F 47% 30.03 in 10.0 mi NW 13.8 mph 32.2 mph N/A   Mostly Cloudy
5:15 PM 26.6 °F 12.0 °F 6.8 °F 43% 30.03 in 10.0 mi NNW 23.0 mph 34.5 mph N/A   Mostly Cloudy
5:35 PM 26.6 °F 13.8 °F 5.0 °F 40% 30.04 in 10.0 mi WNW 17.3 mph 32.2 mph N/A   Mostly Cloudy
5:55 PM 24.8 °F 13.4 °F 6.8 °F 46% 30.06 in 10.0 mi NW 12.7 mph 20.7 mph N/A   Partly Cloudy
6:15 PM 24.8 °F 12.4 °F 6.8 °F 46% 30.07 in 10.0 mi NW 15.0 mph 21.9 mph N/A   Clear
6:35 PM 24.8 °F 11.9 °F 6.8 °F 46% 30.07 in 10.0 mi NW 16.1 mph 27.6 mph N/A   Clear
6:55 PM 24.8 °F 12.4 °F 6.8 °F 46% 30.08 in 10.0 mi NW 15.0 mph 20.7 mph N/A   Partly Cloudy
7:15 PM 24.8 °F 11.9 °F 5.0 °F 43% 30.09 in 10.0 mi NW 16.1 mph 25.3 mph N/A   Mostly Cloudy
7:35 PM 24.8 °F 12.9 °F 6.8 °F 46% 30.10 in 10.0 mi NW 13.8 mph 19.6 mph N/A   Mostly Cloudy
7:55 PM 24.8 °F 14.0 °F 6.8 °F 46% 30.12 in 10.0 mi NW 11.5 mph 17.3 mph N/A   Mostly Cloudy
8:15 PM 24.8 °F 11.5 °F 6.8 °F 46% 30.13 in 10.0 mi NW 17.3 mph 20.7 mph N/A   Overcast
8:35 PM 23.0 °F 10.1 °F 6.8 °F 50% 30.13 in 10.0 mi NW 15.0 mph 26.5 mph N/A   Scattered Clouds
8:55 PM 23.0 °F 9.6 °F 6.8 °F 50% 30.15 in 10.0 mi NW 16.1 mph 28.8 mph N/A   Mostly Cloudy
9:15 PM 23.0 °F 10.1 °F 6.8 °F 50% 30.16 in 10.0 mi NW 15.0 mph 28.8 mph N/A   Overcast
9:35 PM 23.0 °F 8.3 °F 6.8 °F 50% 30.17 in 10.0 mi NW 19.6 mph 28.8 mph N/A   Overcast
9:55 PM 23.0 °F 10.6 °F 6.8 °F 50% 30.18 in 10.0 mi NW 13.8 mph 24.2 mph N/A   Overcast
10:15 PM 23.0 °F 15.8 °F 6.8 °F 50% 30.18 in 10.0 mi NNW 5.8 mph 21.9 mph N/A   Overcast
10:35 PM 21.2 °F 10.1 °F 6.8 °F 54% 30.19 in 10.0 mi NNW 10.4 mph 19.6 mph N/A   Overcast
10:55 PM 21.2 °F 9.5 °F 6.8 °F 54% 30.18 in 10.0 mi NNW 11.5 mph 26.5 mph N/A   Mostly Cloudy
11:15 PM 21.2 °F 8.3 °F 5.0 °F 50% 30.19 in 10.0 mi NNW 13.8 mph 28.8 mph N/A   Scattered Clouds
11:35 PM 21.2 °F 6.0 °F 5.0 °F 50% 30.19 in 10.0 mi NW 19.6 mph 25.3 mph N/A   Clear
11:55 PM 21.2 °F 4.9 °F 3.2 °F 46% 30.19 in 10.0 mi NW 23.0 mph 29.9 mph N/A   Clear